Location: Cheching
(60.0667°N, 164.2167°W)
Time: 14:14:43
(UTC+00:00)

STRAND 1 - Pass Details

Date: 24 January 2021
Orbit: 768 x 780 km, 98.4° (Epoch: 04 March)

Event Time Altitude Azimuth Distance (km) Brightness Sun altitude
Rises 17:22:13 0° 172° (S) 3,238 ? -14.8°
Reaches altitude 10° 17:24:33 10° 176° (S) 2,316 ? -14.5°
Maximum altitude 17:29:36 61° 257° (WSW) 881 ? -13.9°
Drops below altitude 10° 17:34:43 10° 338° (NNW) 2,340 ? -13.3°
Sets 17:37:05 0° 342° (NNW) 3,273 ? -13.0°
